カタログに戻る

COSMOS 2499 DEB

運用中PO
NORAD 60617·DEBRIS·🇷🇺 Russia

打ち上げ May 23, 2014 から Plesetsk Cosmodrome

Loading…

次のパス (今後24時間)

TLE

最新Source: Space-Track

元期: Sep 12, 2026, 19:57 UTC

1 60617U 14028CD  26255.83172522  .00004586  00000-0  91119-2 0  9991
2 60617  82.1828 106.5669 0203031 302.8663  55.3065 13.27394043160637

AllMySatでCOSMOS 2499 DEBをリアルタイム追跡

Download on the App Store